Regional Weather Roundup
Issued by NWS

Home | Current Version | Previous Version | Graphics & Text | Print | Product List | Glossary Off
Versions: 1 2 3 4 5 6 7 8 9 10 11 12 13 14 15 16 17 18 19 20 21 22 23 24 25 26 27 28 29 30 31 32 33 34 35 36 37 38 39 40 41 42 43 44 45 46 47 48 49 50

783
ASUS43 KMPX 221910
RWRMN
WEATHER ROUNDUP FOR MINNESOTA
NATIONAL WEATHER SERVICE TWIN CITIES/CHANHASSEN MN
200 PM CDT WED MAR 22 2017


NOTE: "FAIR" INDICATES FEW OR NO CLOUDS BELOW 12,000 FEET WITH NO
SIGNIFICANT WEATHER AND/OR OBSTRUCTIONS TO VISIBILITY. N/A MEANS
CURRENT SKY AND/OR WEATHER CONDITIONS ARE NOT AVAILABLE.

MNZ060>063-068>070-222000-
   Twin Cities Metro

CITY           SKY/WX    TMP DP  RH WIND       PRES   REMARKS
TWIN CITIES    MOSUNNY   36   7  29 S8        30.49F
ST PAUL        SUNNY     37  11  34 SE13G20   30.51F
CRYSTAL        SUNNY     38   7  27 SE16G23   30.48F
BLAINE         MOSUNNY   39   9  28 SE12G17   30.48F
LAKEVILLE      SUNNY     36  16  44 S14       30.47F
EDEN PRAIRIE   PTSUNNY   38  10  31 S10       30.47F
SOUTH ST PAUL  SUNNY     36  10  33 SE9       30.49F
LAKE ELMO      FAIR      36  10  35 SE9       30.50F
$$
MNZ001>005-007-008-013>017-022>024-027-028-222000-
   Northwest Minnesota

CITY           SKY/WX    TMP DP  RH WIND       PRES   REMARKS
BEMIDJI        CLOUDY    31   7  36 SE12      30.36F WCI  21
HALLOCK        CLOUDY    28  14  54 SE23      30.30F WCI  14
ROSEAU         CLOUDY    32  10  40 S13G18    30.34F WCI  22
WARROAD        CLOUDY    30  10  43 S10       30.36F WCI  21
THIEF RVR FALL   N/A    N/A N/A N/A MISG        N/A
CROOKSTON      CLOUDY    30  10  43 S23       30.32F WCI  17
FOSSTON        PTSUNNY   30   9  40 SE13      30.34F WCI  20
DETROIT LAKES  CLOUDY    32  10  40 S21       30.33F WCI  20
MOORHEAD       MOSUNNY   30  12  47 SE25      30.31F WCI  16
PARK RAPIDS    PTSUNNY   33   7  33 S18       30.35F WCI  22
MAHNOMEN       CLOUDY    31   9  38 SE15G21   30.32F WCI  21
$$
MNZ006-009>011-018-025>026-222000-
   North Central Minnesota

CITY           SKY/WX    TMP DP  RH WIND       PRES   REMARKS
BAUDETTE       CLOUDY    32   4  30 S15       30.36F WCI  22
FLAG ISLAND    CLOUDY    25  10  54 S16       30.37F WCI  12
INTL FALLS     CLOUDY    30   4  33 S7        30.40F WCI  23
WASKISH        CLOUDY    32   9  37 SE7G18    30.38F WCI  26
BIG FORK       CLOUDY    32   9  37 SE10      30.41F WCI  24
LONGVILLE      CLOUDY    32   5  32 SE9       30.41F WCI  24
GRAND RAPIDS   CLOUDY    30   7  37 S14       30.45F WCI  19
CRANE LAKE     CLOUDY    28  -2  26 S3        30.46F
ORR            MOSUNNY   30   1  29 CALM      30.40F
COOK           CLOUDY    30   7  37 SE8       30.43F WCI  23
WALKER         MOCLDY    31   6  35 S13       30.39S WCI  21
$$
MNZ012-019>021-037-222000-
   Northeast Minnesota

CITY           SKY/WX    TMP DP  RH WIND       PRES   REMARKS
DULUTH         MOSUNNY   30   9  41 SE8       30.46F WCI  22
ELY            SUNNY     30   3  31 S5        30.44F WCI  25
HIBBING        MOSUNNY   30   5  34 S9G23     30.43F WCI  22
EVELETH        MOSUNNY   32   2  27 S6        30.45F WCI  27
DULUTH HARBOR  CLOUDY    30  18  59 NE13      30.52F WCI  20
TWO HARBORS    MOSUNNY   32  12  43 SE7       30.48F WCI  26
SILVER BAY     CLOUDY    28  10  47 S5        30.49F WCI  23
GRAND MARAIS     N/A     25  11  55 CALM      30.57F
G MARAIS ARPRT SUNNY     21   5  49 SE7       30.47F WCI  13
$$
MNZ029>031-032-039>041-046>048-054>057-064-222000-
   West Central Minnesota

CITY           SKY/WX    TMP DP  RH WIND       PRES   REMARKS
FERGUS FALLS   CLOUDY    30  12  47 S23       30.38F WCI  17
WHEATON        CLOUDY    30  16  55 SE24G30   30.33F WCI  16
MORRIS         CLOUDY    30  16  55 SE23G31   30.35F WCI  17
ALEXANDRIA     CLOUDY    30   9  41 S18G26    30.39F WCI  18
ELBOW LAKE     CLOUDY    31  12  45 SE24G31   30.35F WCI  17
WADENA         PTSUNNY   32  10  40 S17       30.36F WCI  21
GLENWOOD       CLOUDY    30  10  43 SE17G24   30.39F WCI  18
APPLETON       CLOUDY    32  18  55 SE13G23   30.36F WCI  22
BENSON         CLOUDY    34  12  40 S16G22    30.40F WCI  23
ORTONVILLE     CLOUDY    32  18  55 SE20G25   30.32F WCI  20
MADISON        CLOUDY    36  21  55 SE21      30.34F
WILLMAR        FAIR      34  19  55 SE16      30.42F WCI  23
$$
MNZ033>034-036-042>043-049>051-058-059-222000-
   Central Minnesota

CITY           SKY/WX    TMP DP  RH WIND       PRES   REMARKS
ST CLOUD       CLOUDY    34   9  35 S16G22    30.44F WCI  24
SAUK CENTRE    CLOUDY    31  11  43 SE20      30.42F WCI  19
PAYNESVILLE      N/A     32  12  43 SE12G18   30.43F WCI  23
AITKIN         MOSUNNY   36   0  21 SE15      30.43F
PINE RIVER     CLOUDY    30  10  43 S13       30.43F WCI  20
BRAINERD       CLOUDY    35   5  28 S10       30.42F WCI  27
STAPLES        PTSUNNY   34   5  29 SE13      30.39F WCI  25
LONG PRAIRIE   CLOUDY    32  10  40 E17       30.41F WCI  21
LITTLE FALLS   MOSUNNY   34   5  29 SE12G17   30.43F WCI  25
LITCHFIELD     CLOUDY    34  16  47 SE10      30.44F WCI  26
BUFFALO        CLOUDY    35   8  32 S7        30.47F WCI  29
MAPLE LAKE     CLOUDY    35  13  39 SE9G17    30.47F WCI  28
HUTCHINSON     CLOUDY    35  20  53 SE10G17   30.45F WCI  27
$$
MNZ037-044-045-052-053-222000-
   East Central Minnesota

CITY           SKY/WX    TMP DP  RH WIND       PRES   REMARKS
PRINCETON      MOSUNNY   39   7  26 SE9       30.47F
MORA           SUNNY     34   9  35 SE10      30.49F WCI  26
CAMBRIDGE      SUNNY     37  16  41 SE9G17    30.46F
RUSH CITY      SUNNY     35   7  31 SE5       30.50F WCI  30
MOOSE LAKE     CLOUDY    36   7  30 S9        30.46F
HINCKLEY       FAIR      36   9  32 S12       30.48F
CLOQUET        MOSUNNY   34   1  25 SE5       30.45F WCI  30
MCGREGOR       MOSUNNY   34   9  35 SE8G17    30.45F WCI  27
$$
MNZ071>073-080-081-089-090-097-098-222000-
   Southwest Minnesota

CITY           SKY/WX    TMP DP  RH WIND       PRES   REMARKS
MONTEVIDEO     CLOUDY    32  19  59 S17G28    30.38F WCI  21
GRANITE FALLS  CLOUDY    34  23  63 SE16      30.40F WCI  24
CANBY          CLOUDY    35  19  52 SE18G26   30.33F WCI  24
MARSHALL       CLOUDY    34  20  56 S21       30.36F WCI  22
REDWOOD FALLS  CLOUDY    35  20  54 SE18      30.41F WCI  24
OLIVIA         MOSUNNY   34  21  60 S15G22    30.41F WCI  24
PIPESTONE      CLOUDY    30  21  69 SE17G23   30.31F WCI  18
WINDOM         MOSUNNY   34  21  60 SE17      30.39F WCI  23
WORTHINGTON    MIX PCPN  31  23  72 SE18      30.36F WCI  19
JACKSON        CLOUDY    32  23  69 SE15      30.40F WCI  22
TRACY          CLOUDY    34  24  66 S17G23    30.37F WCI  23
SLAYTON        CLOUDY    31  24  72 SE21      30.35F WCI  19
$$
MNZ065>067-074>077-082>085-091>093-222000-
   South Central Minnesota

CITY           SKY/WX    TMP DP  RH WIND       PRES   REMARKS
MANKATO        CLOUDY    34  18  52 SE16      30.46F WCI  24
NEW ULM        MOSUNNY   34  19  55 S15       30.43F WCI  24
ST JAMES       MOSUNNY   34  25  69 SE16      30.44F WCI  23
FAIRMONT       CLOUDY    34  22  61 S16       30.43F WCI  24
GLENCOE        CLOUDY    35  21  55 SE10      30.45F WCI  28
FARIBAULT      SUNNY     36  18  48 SE13      30.47F
OWATONNA       MOSUNNY   37  18  44 S9G17     30.47F
WASECA         CLOUDY    34  21  60 SE12      30.48F WCI  25
ALBERT LEA     PTSUNNY   36  18  48 S14G21    30.46F
$$
MNZ078>079-086>088-094>096-222000-
   Southeast Minnesota

CITY           SKY/WX    TMP DP  RH WIND       PRES   REMARKS
ROCHESTER      SUNNY     35  14  42 S10G18    30.48F WCI  27
RED WING       SUNNY     37   7  28 SE9       30.50F
STANTON        SUNNY     37  14  38 S7G17     30.48F
DODGE CENTER   CLOUDY    34  16  47 SE16      30.47F WCI  23
WINONA         SUNNY     37  10  32 E12       30.53F
AUSTIN         MOSUNNY   36  14  41 SE9       30.47F
PRESTON        SUNNY     34   7  32 SE8G16    30.49F WCI  28
$$
ABBREVIATIONS USED IN REMARKS
   TC - TEMPERATURES IN CELSIUS
  WCI - WIND CHILL INDEX
   HX - HEAT INDEX
  VSB - VISIBILITY
$$




USA.gov is the U.S. government's official web portal to all federal, state and local government web resources and services.